Погода в Майрамадаге

Россия / Республика Северная Осетия — Алания     43°01′14″N   44°28′38″E
темп.,
°C
ветер,
м/с
пор.,
м/с
влажн.,
%
обл.,
%
осадки,
мм/ч
давл.,
гПа
погр.,
м
13 апреля, вт
вт1300:00+6сз2290100 0.1 1022368
03:00+5зсз1194100 0.4 1023260
06:00+5ссз1195100 0.1 1022206
09:00+6сз1193100 0.9 1022284
12:00+7ссз2192100 0.6 1022372
15:00+7ссз1191100 0.9 1021327
18:00+6сз1294100 1.3 1019235
21:00+5в119362 9.1 102039
14 апреля, ср
ср1400:00+4ююз009131 0.0 101928
03:00+4ююз1186100 0.3 101819
06:00+5юз1185100 1.1 101737
09:00+7в2182100 1.4 1018354
12:00+9св3276100 0.6 1017932
15:00+10ссв2166100 1.2 1016885
18:00+9св117591 0.1 1017218
21:00+7юз117894 0.2 101811
15 апреля, чт
чт1500:00+6ю217561 0.0 101813
03:00+5ююз21722 0.0 101814
06:00+5ю22635 0.0 101918
09:00+11с21486 0.0 1017513
12:00+15с22432 0.0 10161242
15:00+16с324424 0.1 10151660
18:00+13ссв235580 0.2 1016214
21:00+11ю016276 0.3 101838
16 апреля, пт
пт1600:00+9ю226439 0.0 101719
03:00+8ю226051 0.0 101714
06:00+8ю115974 0.0 101812
09:00+13ссв225191 0.0 1017705
12:00+16ссв334381 0.1 10151654
15:00+17св334346 0.4 10141644
18:00+14всв256218 0.7 1015205
21:00+10ююз226319 0.9 101723
17 апреля, сб
сб1700:00+9ю226174 0.1 101822
03:00+8ююз116460 0.1 101713
06:00+7зсз2487100 0.0 1021197
09:00+7зсз1295100 0.6 1022345
12:00+7ссз2396100 0.7 1022369
15:00+6с1195100 0.9 1023341
18:00+6сз0195100 0.1 1023183
21:00+6зсз1195100 0.1 1022143